Regional Weather Roundup
Issued by NWS

Home | Current Version | Previous Version | Graphics & Text | Print | Product List | Glossary On
Versions: 1 2 3 4 5 6 7 8 9 10 11 12 13 14 15 16 17 18 19 20 21 22 23 24 25 26 27 28 29 30 31 32 33 34 35 36 37 38 39 40 41 42 43 44 45 46 47 48 49 50
000
ASUS43 KMKX 310011
RWRWI

WISCONSIN REGIONAL WEATHER ROUNDUP
NATIONAL WEATHER SERVICE MILWAUKEE/SULLIVAN WI
700 PM CDT SAT AUG 30 2014

NOTE: "FAIR" INDICATES FEW OR NO CLOUDS BELOW 12,000 FEET WITH NO
SIGNIFICANT WEATHER AND/OR OBSTRUCTIONS TO VISIBILITY.

WIZ001-002-006>008-014>016-023>028-310100-
NORTHWEST WISCONSIN

CITY           SKY/WX    TMP DP  RH WIND       PRES   REMARKS
SUPERIOR ARPT  CLOUDY    63  61  92 NE6       29.88R
6HR MIN TEMP:  63; 6HR MAX TEMP:  69;

ASHLAND        CLOUDY    62  58  86 E5        29.90S
6HR MIN TEMP:  61; 6HR MAX TEMP:  64;

HAYWARD        PTCLDY    64  59  83 NE5       29.89F
6HR MIN TEMP:  64; 6HR MAX TEMP:  68;

SIREN          CLEAR     69  59  71 SE5       29.87S
6HR MIN TEMP:  66; 6HR MAX TEMP:  71;

RICE LAKE      CLOUDY    66  60  79 CALM      29.89S
6HR MIN TEMP:  64; 6HR MAX TEMP:  68;

LADYSMITH      MOCLDY    67  60  77 N3        29.90R
6HR MIN TEMP:  64; 6HR MAX TEMP:  69;

EAU CLAIRE     CLOUDY    66  62  87 CALM      29.87R
6HR MIN TEMP:  66; 6HR MAX TEMP:  74;

MENOMONIE      CLOUDY    67  61  80 NE3       29.88S
6HR MIN TEMP:  67; 6HR MAX TEMP:  70;

NEW RICHMOND   CLEAR     68  60  77 E5        29.87S
6HR MIN TEMP:  67; 6HR MAX TEMP:  71;

OSCEOLA        CLEAR     70  62  77 E6        29.89R
6HR MIN TEMP:  65; 6HR MAX TEMP:  73;

$$

WIZ003>005-009-010-017-018-310100-
NORTH CENTRAL WISCONSIN

CITY           SKY/WX    TMP DP  RH WIND       PRES   REMARKS
WOODRUFF       CLOUDY    60  57  91 N8        29.89R
6HR MIN TEMP:  60; 6HR MAX TEMP:  62;

RHINELANDER    CLOUDY    61  57  87 VRB3      29.89R
6HR MIN TEMP:  60; 6HR MAX TEMP:  64; 6HR PCP:  0.01;

EAGLE RIVER    CLOUDY    59  57  94 N7        29.88R
LAND O LAKES   CLOUDY    58  56  92 N7        29.90R
6HR MIN TEMP:  58; 6HR MAX TEMP:  61;

PHILLIPS       CLOUDY    63  58  86 N3        29.88R
6HR MIN TEMP:  61; 6HR MAX TEMP:  64;

TOMAHAWK       CLOUDY    61  57  88 NW6       29.89R
6HR MIN TEMP:  61; 6HR MAX TEMP:  65;

MEDFORD        CLOUDY    62  59  91 N6        29.88S
6HR MIN TEMP:  62; 6HR MAX TEMP:  68;

MERRILL        CLOUDY    63  61  91 N5        29.87R
6HR MIN TEMP:  63; 6HR MAX TEMP:  72;

$$

WIZ029-030-035-036-043>047-310100-
CENTRAL WISCONSIN

CITY           SKY/WX    TMP DP  RH WIND       PRES   REMARKS
WAUSAU         CLOUDY    66  61  84 N8        29.85R
6HR MIN TEMP:  66; 6HR MAX TEMP:  74;

MOSINEE        CLOUDY    66  64  94 N9        29.87R
MARSHFIELD     CLOUDY    67  62  84 NW8       29.86R
6HR MIN TEMP:  67; 6HR MAX TEMP:  76;

STEVENS POINT  MOCLDY    68  62  82 NW7       29.85R
6HR MIN TEMP:  66; 6HR MAX TEMP:  73; 6HR PCP:  0.15;

WAUPACA        PTCLDY    73  67  80 NW7       29.83R
6HR MIN TEMP:  71; 6HR MAX TEMP:  78; 6HR PCP:  0.16;

WAUTOMA        PTCLDY    74  68  81 NW3       29.83R
6HR MIN TEMP:  73; 6HR MAX TEMP:  79; 6HR PCP: TRACE;

WISC RAPIDS    CLOUDY    71  64  78 N9        29.86R
6HR MIN TEMP:  71; 6HR MAX TEMP:  78; 6HR PCP:  0.01;

CAMP DOUGLAS   CLEAR     73  70  91 NW8       29.84S
6HR MIN TEMP:  73; 6HR MAX TEMP:  80;

$$

WIZ011>013-019>022-031-037>040-048>050-310100-
NORTHEAST WISCONSIN

CITY           SKY/WX    TMP DP  RH WIND       PRES   REMARKS
ANTIGO         CLOUDY    62  60  93 NW8       29.86R
6HR MIN TEMP:  62; 6HR MAX TEMP:  72; 6HR PCP:  0.01;

STURGEON BAY   CLOUDY    68  63  83 N15       29.80R
6HR MIN TEMP:  68; 6HR MAX TEMP:  73;

GREEN BAY      MOCLDY    71  67  87 NW10      29.80R
6HR MIN TEMP:  70; 6HR MAX TEMP:  79; 6HR PCP:  0.01;

MANITOWOC      CLOUDY    74  66  76 W10       29.80R
6HR MIN TEMP:  70; 6HR MAX TEMP:  77; 6HR PCP:  0.09;

APPLETON       MOCLDY    72  64  78 W8        29.82R
CLINTONVILLE   PTCLDY    70  64  83 NW8       29.82R
OSHKOSH        PTCLDY    73  65  75 NW5       29.82R
6HR MIN TEMP:  71; 6HR MAX TEMP:  76; 6HR PCP:  0.04;

$$

WIZ032>034-041-042-053>061-310100-
SOUTHWEST WISCONSIN

CITY           SKY/WX    TMP DP  RH WIND       PRES   REMARKS
LA CROSSE      PTCLDY    76  65  68 N8        29.84R
6HR MIN TEMP:  75; 6HR MAX TEMP:  78; 6HR PCP: TRACE;

SPARTA         MOCLDY    72  64  74 NW7       29.86R
6HR MIN TEMP:  72; 6HR MAX TEMP:  78;

VIROQUA        FAIR      72  65  79 NW5       29.87S
6HR MIN TEMP:  72; 6HR MAX TEMP:  77;

BOSCOBEL       CLEAR     78  66  66 NW3       29.84R HX  80
6HR MIN TEMP:  77; 6HR MAX TEMP:  83;

PRAIRIE DU CHI CLEAR     78  64  60 CALM      29.84R HX  80
6HR MIN TEMP:  75; 6HR MAX TEMP:  81;

PLATTEVILLE    MOCLDY    76  70  82 CALM      29.87S
6HR MIN TEMP:  75; 6HR MAX TEMP:  80;

$$

WIZ056-057-062-063-064-067-068-310100-
SOUTH CENTRAL WISCONSIN

CITY           SKY/WX    TMP DP  RH WIND       PRES   REMARKS
BARABOO/DELLS  PTCLDY    75  64  68 NW3       29.84S
6HR MIN TEMP:  69; 6HR MAX TEMP:  80; 6HR PCP:  0.05;

LONE ROCK      CLEAR     81  67  62 NW6       29.84R HX  83
6HR MIN TEMP:  77; 6HR MAX TEMP:  84; 6HR PCP:  0.02;

WATERTOWN      CLEAR     76  68  78 W5        29.83R
6HR MIN TEMP:  70; 6HR MAX TEMP:  79;

MADISON        PTCLDY    78  66  66 W3        29.83R HX  80
6HR MIN TEMP:  73; 6HR MAX TEMP:  81; 6HR PCP: TRACE;

MIDDLETON      FAIR      77  64  64 W6        29.85R
6HR MIN TEMP:  74; 6HR MAX TEMP:  82; 6HR PCP:  0.01;

MONROE         CLEAR     75  66  73 SW12      29.86R
JANESVILLE     MOCLDY    79  64  61 SW12      29.84R HX  81
$$

WIZ051-052-058>065-066-070>072-310100-
SOUTHEAST WISCONSIN

CITY           SKY/WX    TMP DP  RH WIND       PRES   REMARKS
MILWAUKEE      PTCLDY    77  67  71 W7        29.83R
6HR MIN TEMP:  75; 6HR MAX TEMP:  79; 6HR PCP:  0.01;

WAUKESHA       PTCLDY    73  66  78 W6        29.84R
MILWAUKEE/TIMM CLEAR     75  66  73 W8        29.83R
RACINE         PTCLDY    77  67  71 W6        29.85R
6HR MIN TEMP:  74; 6HR MAX TEMP:  80; 6HR PCP:  0.04;

BURLINGTON     PTCLDY    74  65  75 SW3       29.85R
6HR MIN TEMP:  70; 6HR MAX TEMP:  77; 6HR PCP:  0.12;

KENOSHA        CLEAR     76  67  73 W9        29.84R
6HR MIN TEMP:  75; 6HR MAX TEMP:  80; 6HR PCP: TRACE;

FOND DU LAC    PTCLDY    72  67  84 CALM      29.82R
6HR MIN TEMP:  70; 6HR MAX TEMP:  76; 6HR PCP:  0.32;

SHEBOYGAN      PTCLDY    72  68  87 W6        29.81R
6HR MIN TEMP:  68; 6HR MAX TEMP:  79; 6HR PCP:  0.06;

WEST BEND      MOCLDY    73  64  73 SW3       29.83R
JUNEAU         PTCLDY    73  68  86 W3        29.84S
6HR MIN TEMP:  67; 6HR MAX TEMP:  76; 6HR PCP:  0.15;

$$

LSZ147-162-310100-
LAKE SUPERIOR

STATION/POSITION TIME  TEMP    WIND        PRES    WAVE
                       AIR SEA DIR/SP/G            HT/PER
                 (UTC) (F)     (DEG/KT/KT) (MB)    (FT/S)
W MID LAKE BUOY  2350   58 58  260/  2/  4 1011.8R   1/ 4
DEVILS ISLAND    0000   61     170/  4/  5 1012.4R
PORT WING        2300   64     120/  4/  9 1012.2S
SAXON HARBOR     2300   62      40/  6/  7 1012.2
$$

LMZ867-665-643>646-310100-
LAKE MICHIGAN

STATION/POSITION TIME  TEMP    WIND        PRES    WAVE
                       AIR SEA DIR/SP/G            HT/PER
                 (UTC) (F)     (DEG/KT/KT) (MB)    (FT/S)
N MID LAKE BUOY  2350   63 65  320/ 19/ 23 1007.2R   4/ 6
NORTHPORT PIER   2300   66     330/ 16/ 21 1007.8R
KEWAUNEE LAKESHO 2300   76     300/  5/  7 1007.3R
SHEBOYGAN LAKESH 0000   72 52  250/  7/  8 1009.3R
ATWATER BUOY     0000   72     250/  6/  8 1011.1R
MILWAUKEE LAKESH 2300   76     250/ 11/ 14   N/A
S MID LAKE BUOY  2350   73 69  240/ 10/ 12 1009.9R   2/ 4
KENOSHA   LAKESH 0000   79     250/ 10/ 15 1009.8R
$$

TC  - TEMPERATURE IN CELSIUS
VSB - VISIBILITY IN STATUTE MILES
WCI - WIND CHILL INDEX
HX  - HEAT INDEX




USA.gov is the U.S. government's official web portal to all federal, state and local government web resources and services.